This is the latest recevied weather packets stored in our database for station/object K7MT-WX. If no packets are shown the sender has not sent any weather packets the latest 10 day(s).
| Time | Temp. | Humidity | Pressure | Rain* | Wind** | Luminosity | Snow |
|---|---|---|---|---|---|---|---|
| 1777837570 | 22.78° C | 27% | 1011.7 hPa | 0 mm | - | - | - |
| 1777836670 | 22.22° C | 27% | 1011.9 hPa | 0 mm | - | - | - |
| 1777835770 | 22.22° C | 31% | 1012.1 hPa | 0 mm | - | - | - |
| 1777834870 | 21.67° C | 32% | 1012.4 hPa | 0 mm | - | - | - |
| 1777833970 | 21.11° C | 32% | 1012.7 hPa | 0 mm | - | - | - |
| 1777833070 | 21.67° C | 33% | 1013 hPa | 0 mm | - | - | - |
| 1777832170 | 21.11° C | 36% | 1013.3 hPa | 0 mm | - | - | - |
| 1777831270 | 20.56° C | 39% | 1013.6 hPa | 0 mm | - | - | - |
| 1777830370 | 19.44° C | 40% | 1013.9 hPa | 0 mm | - | - | - |
| 1777829470 | 19.44° C | 42% | 1014.2 hPa | 0 mm | - | - | - |
| 1777828570 | 17.78° C | 43% | 1014.4 hPa | 0 mm | - | - | - |
| 1777827670 | 18.33° C | 48% | 1014.6 hPa | 0 mm | - | - | - |
| 1777826770 | 16.11° C | 50% | 1014.8 hPa | 0 mm | - | - | - |
| 1777825870 | 16.11° C | 50% | 1015 hPa | 0 mm | - | - | - |
| 1777824970 | 15° C | 53% | 1015.2 hPa | 0 mm | - | - | - |
| 1777824070 | 15° C | 53% | 1015.3 hPa | 0 mm | - | - | - |
| 1777823170 | 13.33° C | 59% | 1015.5 hPa | 0 mm | - | - | - |
| 1777822270 | 11.67° C | 63% | 1015.7 hPa | 0 mm | - | - | - |
| 1777821370 | 10.56° C | 65% | 1015.8 hPa | 0 mm | - | - | - |
| 1777820470 | 9.44° C | 67% | 1015.9 hPa | 0 mm | - | - | - |
| 1777819570 | 8.33° C | 72% | 1016 hPa | 0 mm | - | - | - |
| 1777818670 | 7.22° C | 80% | 1016.2 hPa | 0 mm | - | - | - |
| 1777817770 | 6.11° C | 81% | 1016.2 hPa | 0 mm | - | - | - |
| 1777816870 | 5.56° C | 84% | 1016.3 hPa | 0 mm | - | - | - |
| 1777815970 | 4.44° C | 82% | 1016.3 hPa | 0 mm | - | - | - |
* Rain latest hour (hover to see other rain measurements)
** Current wind speed in m/s (hover to see current wind gust speed)